Temp
68 68 68 67 67 68 67 66 66 66 66 65 65 65 65 66 66 66 66 66 67 67 68 68 68 68 69 68 67 67 67 67 67 66 66 66 65 65 66 65 64 65
68 68 68 68 67 67 67 67 67 67 67 66 66 66 66 66 66 66 66 67 67 68 68 68 68 68 68 67 67 66 66 67 66 68 66 65 66 66 66 66 65 65
68 68 68 67 67 67 68 68 67 67 67 66 66 66 66 67 67 67 67 67 67 67 68 68 68 68 67 66 66 66 67 66 66 66 67 66 66 66 66 66 65 65
68 68 68 68 68 68 68 67 67 67 66 65 65 65 66 67 66 64 65 68 66 66 66 68 67 67 68 67 66 65 67 67 67 67 66 66 66 66 66 65 65 65
68 67 68 68 68 68 68 67 67 67 66 66 66 65 66 66 65 65 65 66 66 65 65 66 67 67 67 67 66 66 66 66 66 66 66 65 66 66 66 65 65 65
68 68 68 68 67 67 67 67 68 67 67 66 66 65 65 66 65 65 66 66 66 66 65 66 66 66 67 67 66 66 66 66 66 65 65 65 65 66 67 66 64 64
67 67 67 68 68 67 67 67 67 68 68 68 64 63 65 65 65 66 67 68 67 67 67 66 66 66 66 66 66 66 66 66 66 65 65 64 64 64 65 65 65 64
67 67 67 67 67 67 67 67 67 67 68 66 63 64 64 65 66 66 68 69 68 68 68 68 67 67 66 66 66 65 66 66 66 65 65 64 63 63 63 65 64 64
67 67 67 67 67 67 67 67 67 67 67 67 67 66 64 64 65 66 68 68 69 68 68 67 67 67 67 66 66 66 66 66 66 65 65 64 62 62 63 64 64 64
66 66 66 66 66 67 67 66 67 67 67 67 67 66 65 66 66 67 67 66 67 67 67 67 67 67 67 67 67 67 66 66 65 65 63 62 60 62 62 63 63 60
65 65 66 66 66 66 66 65 63 62 62 63 63 64 65 64 65 65 65 65 66 67 67 67 67 66 66 66 66 66 66 66 65 64 62 61 62 62 64 62 61 62
65 65 65 65 66 64 62 60 61 62 62 62 62 61 62 63 64 64 65 64 63 65 66 67 67 66 66 66 66 65 65 64 64 63 61 60 60 60 60 60 61 62
65 65 65 65 63 61 61 61 61 62 62 62 62 61 61 61 63 64 64 65 65 64 65 66 66 66 66 65 65 65 65 63 61 60 60 60 60 60 59 60 60 60
65 65 65 63 62 61 62 62 62 61 62 62 61 61 61 62 64 64 64 64 63 63 64 64 64 65 65 65 65 64 63 61 60 60 60 60 60 60 60 60 61 61
64 64 64 63 63 62 61 61 61 61 61 61 61 61 62 64 65 64 63 63 62 62 62 62 64 64 65 64 63 62 60 59 59 59 60 60 58 58 59 60 60 60
64 64 63 63 62 62 61 61 61 61 61 61 61 61 62 63 64 63 63 63 62 61 60 61 62 62 65 64 62 62 60 60 60 60 60 60 60 58 58 59 60 59
63 63 62 62 62 62 61 61 61 61 60 60 61 61 62 63 63 62 62 62 62 61 60 61 62 63 60 53 52 57 63 61 60 59 60 60 59 59 59 59 59 59
62 62 62 62 61 61 61 61 61 60 60 60 60 60 61 61 61 62 62 61 61 60 60 61 61 62 54 51 49 51 60 62 61 60 60 59 59 59 59 58 59 59
61 61 61 61 61 61 61 61 61 60 60 60 60 61 61 60 61 61 61 61 61 60 60 60 60 56 49 48 48 49 52 61 60 60 59 58 58 58 59 59 59 59
61 61 61 61 61 60 60 61 61 60 60 61 61 60 60 61 60 60 61 60 60 60 60 60 59 55 47 48 48 48 49 54 59 59 59 59 59 60 61 59 58 58
61 61 61 61 60 60 60 60 61 60 60 60 60 60 60 60 60 60 60 60 60 60 59 60 61 52 46 47 47 48 48 53 59 60 60 58 58 59 59 59 57 58
61 61 61 61 60 60 60 60 60 61 60 60 60 59 60 60 59 60 60 60 60 60 59 59 60 48 46 46 47 47 49 59 58 58 57 57 58 57 57 57 56 56
61 61 61 60 60 59 59 60 60 60 60 60 59 59 59 59 60 60 61 60 60 59 59 59 59 50 45 46 46 46 51 59 57 57 57 57 59 57 56 56 56 56
61 62 61 60 59 59 59 59 60 60 60 60 59 58 58 59 60 60 58 59 59 59 59 59 59 54 45 46 46 45 54 58 56 56 56 56 57 56 56 55 57 63
62 61 61 60 60 60 60 59 59 60 59 60 60 60 59 59 57 58 58 58 59 60 61 60 59 56 46 46 46 45 53 59 57 56 56 56 56 56 55 56 55 61
60 61 61 61 61 60 59 59 59 59 59 60 59 60 59 59 58 59 59 59 59 59 60 61 59 58 51 44 45 45 49 58 57 56 56 56 54 55 56 55 55 55
MSLP
1014.37 1014.45 1014.57 1014.65 1014.69 1014.65 1014.73 1014.97 1015.13 1015.37 1015.53 1015.73 1015.93 1015.97 1016.09 1016.05 1016.13 1016.21 1016.25 1016.41 1016.57 1016.73 1016.85 1017.01 1017.05 1017.13 1017.09 1017.13 1017.17 1017.29 1017.45 1017.53 1017.61 1017.73 1017.93 1018.05 1018.21 1018.29 1018.45 1018.45 1018.53 1018.61
1014.17 1014.29 1014.41 1014.53 1014.57 1014.49 1014.49 1014.53 1014.77 1015.09 1015.29 1015.41 1015.37 1015.21 1015.29 1015.57 1015.73 1015.81 1015.97 1016.17 1016.37 1016.57 1016.65 1016.77 1016.81 1016.81 1016.85 1016.85 1016.97 1017.17 1017.33 1017.41 1017.57 1017.53 1017.81 1017.97 1018.01 1018.13 1018.21 1018.21 1018.29 1018.29
1013.81 1014.01 1014.17 1014.37 1014.41 1014.41 1014.37 1014.37 1014.53 1014.77 1014.97 1014.85 1014.57 1014.93 1015.25 1015.05 1015.13 1015.45 1015.85 1016.13 1016.33 1016.41 1016.41 1016.45 1016.53 1016.53 1016.49 1016.61 1016.77 1016.93 1017.13 1017.25 1017.41 1017.41 1017.57 1017.69 1017.73 1017.93 1017.93 1018.01 1018.17 1018.21
1013.45 1013.53 1013.69 1013.85 1014.01 1014.17 1014.21 1014.37 1014.49 1014.61 1014.73 1014.81 1014.73 1015.01 1015.01 1014.81 1015.01 1015.41 1015.65 1015.85 1016.17 1016.25 1016.09 1016.01 1016.09 1016.17 1016.21 1016.37 1016.65 1016.85 1016.93 1017.01 1017.01 1017.17 1017.41 1017.45 1017.57 1017.65 1017.77 1017.85 1017.97 1018.05
1013.21 1013.33 1013.37 1013.49 1013.61 1013.77 1014.01 1014.25 1014.41 1014.49 1014.53 1014.49 1014.53 1014.85 1014.93 1014.77 1015.05 1015.33 1015.53 1015.77 1015.89 1015.69 1015.57 1015.85 1015.93 1016.05 1016.09 1016.25 1016.53 1016.77 1016.81 1016.89 1016.85 1017.01 1017.17 1017.29 1017.29 1017.41 1017.49 1017.65 1017.81 1017.93
1012.93 1013.01 1013.13 1013.29 1013.41 1013.53 1013.77 1013.93 1014.01 1014.21 1014.29 1014.37 1014.53 1014.81 1014.73 1014.57 1014.69 1015.01 1015.13 1015.41 1015.45 1015.25 1015.41 1015.65 1015.85 1016.01 1016.13 1016.25 1016.45 1016.53 1016.57 1016.65 1016.69 1016.81 1017.01 1017.17 1017.21 1017.21 1017.29 1017.41 1017.57 1017.73
1012.77 1012.89 1012.97 1013.01 1013.17 1013.25 1013.41 1013.49 1013.61 1013.73 1013.85 1013.97 1015.21 1015.93 1015.45 1015.09 1014.77 1014.49 1014.61 1014.97 1015.25 1015.21 1015.29 1015.57 1015.81 1016.01 1016.05 1016.17 1016.33 1016.45 1016.45 1016.49 1016.57 1016.73 1016.93 1017.09 1017.21 1017.33 1017.33 1017.41 1017.53 1017.65
1012.49 1012.57 1012.73 1012.85 1012.97 1013.09 1013.17 1013.21 1013.37 1013.49 1013.45 1014.09 1015.05 1015.81 1015.85 1015.53 1015.09 1014.73 1014.61 1014.77 1015.05 1015.09 1015.13 1015.21 1015.41 1015.61 1015.81 1016.05 1016.29 1016.45 1016.49 1016.49 1016.57 1016.73 1016.89 1017.05 1017.17 1017.33 1017.37 1017.37 1017.45 1017.57
1012.29 1012.49 1012.61 1012.73 1012.85 1012.93 1013.05 1013.09 1013.17 1013.25 1013.29 1013.49 1013.73 1014.21 1015.13 1015.53 1015.49 1015.05 1014.81 1014.69 1014.81 1014.93 1015.09 1015.25 1015.37 1015.53 1015.65 1015.89 1016.05 1016.17 1016.29 1016.37 1016.41 1016.57 1016.81 1017.05 1017.41 1017.65 1017.69 1017.41 1017.37 1017.45
1012.25 1012.37 1012.53 1012.65 1012.77 1012.77 1012.89 1012.93 1013.01 1013.17 1013.25 1013.21 1013.17 1013.41 1013.89 1013.97 1014.17 1014.25 1014.25 1014.45 1014.65 1014.89 1015.01 1015.13 1015.29 1015.41 1015.49 1015.61 1015.69 1015.81 1015.93 1016.13 1016.33 1016.53 1016.85 1017.29 1017.37 1017.17 1017.09 1017.25 1017.33 1017.49
1012.21 1012.29 1012.45 1012.53 1012.53 1012.57 1012.65 1012.89 1013.25 1013.53 1014.13 1014.73 1014.93 1014.37 1013.45 1013.45 1013.73 1013.73 1014.05 1014.29 1014.57 1014.61 1014.81 1014.97 1015.09 1015.21 1015.41 1015.49 1015.53 1015.53 1015.69 1015.93 1016.21 1016.49 1016.73 1016.65 1016.57 1016.81 1017.13 1017.25 1017.37 1017.37
1012.09 1012.17 1012.21 1012.25 1012.37 1012.65 1012.97 1013.13 1013.09 1013.25 1013.41 1013.69 1014.37 1015.45 1015.65 1014.49 1013.69 1013.85 1014.01 1014.25 1014.49 1014.61 1014.61 1014.69 1014.81 1015.01 1015.17 1015.25 1015.37 1015.45 1015.61 1015.77 1015.97 1016.21 1016.41 1016.57 1016.69 1016.97 1017.05 1017.13 1017.17 1017.33
1011.85 1011.89 1011.93 1012.13 1012.29 1012.45 1012.65 1012.85 1012.93 1013.05 1013.21 1013.21 1013.25 1013.65 1014.61 1015.61 1015.13 1013.93 1013.93 1014.05 1014.21 1014.41 1014.53 1014.61 1014.69 1014.81 1014.97 1015.09 1015.17 1015.29 1015.41 1015.57 1015.81 1016.01 1016.21 1016.37 1016.57 1016.69 1016.97 1017.01 1016.97 1017.09
1011.45 1011.53 1011.73 1011.89 1012.05 1012.21 1012.33 1012.45 1012.61 1012.81 1013.05 1013.17 1013.33 1013.33 1013.13 1013.41 1014.25 1014.01 1013.81 1013.93 1014.05 1014.21 1014.33 1014.45 1014.53 1014.61 1014.69 1014.81 1014.93 1015.09 1015.25 1015.41 1015.49 1015.65 1015.89 1016.17 1016.33 1016.53 1016.85 1016.89 1016.89 1016.97
1011.17 1011.33 1011.45 1011.65 1011.85 1011.97 1012.09 1012.25 1012.41 1012.53 1012.69 1012.89 1012.97 1013.21 1013.41 1013.29 1013.49 1013.65 1013.77 1013.93 1013.97 1014.05 1014.17 1014.29 1014.37 1014.41 1014.45 1014.53 1014.85 1015.25 1015.65 1016.25 1016.77 1016.41 1016.01 1016.01 1016.21 1016.57 1016.85 1016.77 1016.81 1016.89
1010.93 1011.13 1011.33 1011.49 1011.69 1011.77 1011.89 1012.01 1012.29 1012.53 1012.81 1012.97 1013.05 1013.13 1013.29 1013.25 1013.25 1013.49 1013.61 1013.73 1013.85 1014.01 1014.13 1014.21 1014.21 1014.17 1014.21 1014.37 1014.61 1014.89 1015.37 1015.65 1016.21 1016.69 1016.41 1016.05 1015.97 1016.57 1016.93 1016.81 1016.69 1016.77
1010.81 1010.97 1011.13 1011.33 1011.37 1011.57 1011.73 1011.89 1012.05 1012.37 1012.69 1012.81 1012.97 1013.17 1013.29 1013.21 1013.17 1013.33 1013.45 1013.57 1013.73 1013.89 1014.05 1014.13 1014.05 1014.01 1014.01 1014.21 1014.45 1014.61 1014.85 1015.29 1015.69 1016.09 1016.09 1015.77 1015.89 1016.33 1016.61 1016.73 1016.61 1016.61
1010.57 1010.77 1011.01 1011.09 1011.29 1011.45 1011.53 1011.69 1011.97 1012.33 1012.65 1012.81 1012.97 1013.09 1013.13 1013.29 1013.33 1013.17 1013.17 1013.37 1013.57 1013.77 1013.89 1013.93 1013.89 1013.81 1013.81 1013.93 1014.13 1014.29 1014.45 1014.77 1015.09 1015.29 1015.33 1015.41 1015.61 1016.01 1016.41 1016.69 1016.85 1016.65
1010.37 1010.61 1010.77 1010.97 1011.05 1011.13 1011.33 1011.61 1011.89 1012.13 1012.41 1012.65 1012.73 1012.69 1012.93 1013.17 1013.09 1013.09 1013.13 1013.21 1013.41 1013.57 1013.69 1013.69 1013.69 1013.57 1013.61 1013.61 1013.77 1013.97 1014.13 1014.33 1014.65 1014.77 1015.01 1015.29 1015.65 1015.85 1015.97 1016.33 1016.65 1016.57
1010.17 1010.33 1010.53 1010.65 1010.85 1011.13 1011.37 1011.57 1011.77 1011.89 1011.97 1012.09 1012.21 1012.45 1012.61 1012.77 1012.85 1012.93 1012.97 1013.13 1013.21 1013.33 1013.41 1013.41 1013.41 1013.37 1013.41 1013.45 1013.61 1013.77 1013.97 1014.13 1014.41 1014.69 1014.85 1015.09 1015.37 1015.61 1015.85 1016.05 1016.13 1016.29
1009.97 1010.09 1010.21 1010.45 1010.77 1011.05 1011.29 1011.45 1011.53 1011.73 1011.89 1011.93 1011.97 1012.05 1012.25 1012.41 1012.57 1012.73 1012.89 1013.01 1012.97 1012.97 1013.09 1013.13 1013.09 1013.13 1013.29 1013.37 1013.49 1013.57 1013.77 1014.01 1014.33 1014.53 1014.69 1014.89 1014.97 1015.05 1015.41 1015.61 1015.85 1016.01
1009.57 1009.85 1009.97 1010.21 1010.57 1010.89 1011.13 1011.29 1011.37 1011.49 1011.69 1011.81 1011.93 1011.97 1012.01 1012.17 1012.33 1012.45 1012.57 1012.65 1012.53 1012.57 1012.77 1012.93 1012.93 1013.09 1013.21 1013.29 1013.41 1013.49 1013.73 1014.01 1014.29 1014.45 1014.65 1014.85 1014.93 1015.17 1015.37 1015.49 1015.61 1015.73
1009.17 1009.45 1009.73 1010.01 1010.33 1010.69 1010.89 1011.01 1011.13 1011.33 1011.53 1011.65 1011.89 1011.93 1011.97 1012.05 1011.97 1011.97 1011.93 1012.09 1012.29 1012.53 1012.65 1012.69 1012.73 1012.93 1013.17 1013.29 1013.45 1013.57 1013.61 1013.81 1014.17 1014.45 1014.69 1014.81 1014.81 1015.01 1015.21 1015.37 1015.41 1015.45
1008.81 1009.09 1009.41 1009.73 1010.09 1010.29 1010.41 1010.57 1010.77 1010.97 1011.21 1011.29 1011.41 1011.53 1011.65 1011.53 1011.57 1011.77 1012.01 1012.17 1012.29 1012.41 1012.41 1012.57 1012.57 1012.69 1013.01 1013.17 1013.29 1013.41 1013.37 1013.77 1014.13 1014.41 1014.65 1014.77 1014.89 1015.17 1015.29 1015.25 1015.17 1015.13
1008.41 1008.73 1009.05 1009.37 1009.65 1009.77 1010.01 1010.37 1010.61 1010.73 1010.73 1010.73 1010.73 1010.89 1011.05 1011.33 1011.77 1011.97 1012.05 1012.09 1012.01 1012.05 1012.13 1012.21 1012.17 1012.25 1012.53 1012.69 1012.97 1013.21 1013.25 1013.41 1013.81 1014.21 1014.49 1014.65 1014.73 1014.85 1014.97 1015.01 1015.09 1015.01
1008.21 1008.45 1008.69 1008.89 1009.05 1009.33 1009.69 1010.05 1010.25 1010.29 1010.37 1010.41 1010.45 1010.61 1010.89 1011.09 1011.25 1011.37 1011.53 1011.61 1011.65 1011.77 1011.81 1011.77 1011.93 1012.05 1012.29 1012.65 1012.93 1013.13 1013.13 1013.21 1013.61 1014.05 1014.37 1014.49 1014.61 1014.77 1014.97 1015.01 1014.97 1014.97
Wind_Speed
8 7 8 8 8 7 7 7 6 6 6 5 5 6 8 7 5 6 6 6 6 6 5 5 5 5 6 5 5 5 5 6 6 5 5 5 5 5 5 5 5 5
9 8 7 6 6 6 6 6 6 6 5 4 6 7 6 4 7 8 7 6 5 5 5 5 5 6 5 5 5 5 5 5 6 4 5 6 6 5 6 6 5 4
9 8 8 8 8 8 8 6 5 5 6 7 8 4 4 5 6 5 5 5 5 5 5 6 6 6 7 5 4 4 4 5 6 5 6 7 6 6 6 5 4 4
9 10 9 9 8 8 7 6 4 5 5 6 7 4 4 5 3 3 3 4 4 2 5 7 7 7 6 5 5 5 5 6 6 6 6 5 5 6 6 5 5 4
9 9 8 8 7 7 7 7 6 6 7 8 6 4 6 6 4 5 4 4 5 8 7 5 5 6 6 5 5 6 6 6 6 5 6 6 6 5 5 5 5 5
8 8 7 7 7 8 8 8 7 7 7 8 7 4 4 6 6 6 7 5 7 8 6 5 5 5 6 6 6 7 7 7 6 5 5 5 5 4 4 4 4 4
8 7 8 7 7 8 8 8 7 8 8 7 8 5 6 8 10 10 8 7 8 8 7 6 7 6 5 5 5 6 6 5 4 5 5 4 3 4 3 3 4 4
9 7 7 6 7 7 7 7 7 7 7 5 10 12 14 13 14 12 10 9 9 9 9 8 8 8 7 6 6 6 6 4 5 5 5 4 3 4 3 3 4 4
8 7 7 7 8 7 7 7 6 6 5 7 10 11 13 15 15 14 11 9 9 9 8 7 7 7 6 6 7 7 8 6 6 5 5 4 0 2 3 3 4 4
7 7 7 7 8 8 8 7 7 6 4 7 7 6 9 10 11 10 8 7 7 7 7 6 7 7 7 7 8 8 7 6 5 4 2 4 3 4 5 4 3 3
7 7 8 8 9 8 8 3 3 5 6 10 11 6 4 7 6 5 5 5 6 8 8 8 7 7 7 7 6 6 6 6 5 4 5 6 6 4 2 3 3 5
7 7 9 9 8 4 4 5 5 4 5 5 4 4 12 6 5 5 5 4 4 4 6 7 7 6 7 7 7 6 5 5 6 6 6 5 4 2 3 5 6 6
9 9 8 7 7 7 7 6 7 8 8 8 8 8 4 7 10 4 5 5 5 4 5 6 6 6 6 6 7 6 6 7 6 6 6 6 5 4 3 4 5 5
9 8 7 8 7 7 8 9 8 8 7 7 7 9 11 12 12 8 6 5 4 4 4 4 5 6 6 6 6 6 7 6 7 8 7 6 6 5 4 4 5 5
6 7 6 7 8 8 7 7 8 8 9 8 8 8 7 9 8 7 6 5 4 4 4 3 5 5 5 6 5 3 4 3 1 2 4 6 5 4 4 4 4 5
7 7 8 8 7 8 8 7 6 6 7 7 7 7 7 7 6 6 6 6 5 4 3 3 4 3 4 7 8 7 7 7 6 5 5 6 7 4 3 4 5 5
7 8 8 9 9 7 6 6 7 6 5 6 6 6 7 7 6 7 7 6 6 5 5 5 4 4 7 9 13 15 10 9 9 9 8 7 8 10 8 7 5 5
8 8 8 8 7 8 8 7 5 4 5 5 5 6 6 4 6 8 7 6 5 5 5 6 5 6 8 9 13 15 13 10 9 8 7 7 7 6 4 3 4 4
8 9 9 8 9 9 7 7 7 6 6 6 8 7 5 7 9 7 7 6 6 7 7 6 6 8 10 11 13 15 15 11 7 7 8 6 6 8 7 7 6 5
9 9 9 9 7 6 7 7 7 8 8 8 6 5 7 8 7 8 6 6 7 8 8 7 7 9 12 12 14 15 15 12 6 7 7 8 8 8 7 7 6 6
9 9 9 8 7 7 7 7 8 7 7 7 7 8 9 9 9 8 7 7 8 8 8 8 8 11 13 13 14 16 16 12 7 7 8 7 7 8 8 8 7 6
10 10 9 7 7 7 8 8 8 9 9 7 6 6 6 5 5 5 7 8 9 9 8 8 7 12 14 13 13 15 15 8 7 7 7 6 6 5 5 6 6 7
9 10 9 8 7 8 8 9 9 8 7 6 7 7 7 8 9 9 9 8 7 6 7 8 7 10 13 13 12 14 11 7 7 6 6 7 7 6 6 6 6 6
9 9 9 8 7 9 10 8 7 6 6 7 9 8 9 9 8 6 4 4 6 8 8 8 8 9 15 14 14 14 12 8 6 7 7 8 7 6 6 6 6 11
8 8 8 8 8 9 8 7 6 7 7 8 9 9 9 6 3 4 6 6 8 9 11 11 9 10 15 17 17 15 12 8 8 7 8 8 8 8 5 5 4 7
5 7 7 8 9 7 6 6 7 7 8 9 8 7 7 7 8 8 10 10 9 9 10 11 10 7 11 16 15 15 16 10 7 8 8 8 8 7 6 5 6 6
Wind_Direction
205 200 202 203 208 209 207 202 200 200 201 190 191 200 188 197 187 195 208 202 208 212 212 208 204 208 213 206 198 194 198 208 213 201 200 200 213 208 217 222 217 213
206 202 202 203 212 217 218 206 199 191 193 178 200 208 209 186 194 191 201 210 213 217 214 210 207 207 203 197 190 192 209 209 215 196 200 206 216 210 225 227 230 233
199 198 197 197 204 211 213 208 197 189 170 185 206 167 166 200 206 191 186 191 200 215 220 219 213 197 194 189 177 180 195 209 217 202 198 211 211 211 224 221 225 225
198 195 195 196 195 203 209 206 198 187 172 183 213 178 188 227 213 211 205 192 163 158 217 219 206 199 206 203 187 204 209 210 210 194 201 209 208 205 214 206 216 218
199 199 195 191 192 195 198 204 204 192 194 194 205 176 200 232 231 233 214 196 162 193 196 190 192 199 201 202 187 203 212 214 213 197 201 210 213 201 211 192 199 209
202 199 196 193 189 189 196 201 204 196 197 200 181 157 232 250 248 230 222 195 191 213 208 190 193 195 189 195 195 205 206 209 202 182 194 205 213 208 201 197 201 214
196 196 199 197 193 192 195 201 200 201 201 187 102 169 230 242 252 246 232 204 193 208 210 194 199 202 199 198 203 215 218 214 201 190 194 210 201 210 214 194 205 218
193 191 192 194 198 199 203 201 200 199 209 148 158 170 191 208 220 232 230 208 191 198 201 198 198 200 197 196 204 211 220 218 210 201 207 213 193 211 210 214 206 216
186 188 188 191 196 202 209 208 206 205 202 192 192 183 168 185 202 213 214 198 192 193 196 198 203 206 201 197 201 200 203 208 209 201 202 197 141 328 296 250 223 224
186 186 186 192 198 203 207 208 204 212 216 213 207 177 174 190 184 185 177 181 190 189 188 193 198 203 202 202 201 199 201 204 203 203 158 92 141 194 212 236 199 127
182 181 186 194 200 202 205 178 64 50 17 351 339 311 211 180 198 174 176 182 196 189 186 198 197 194 198 204 207 202 198 192 191 178 139 176 198 208 184 185 154 138
185 184 190 194 195 170 118 127 166 154 152 154 148 311 313 298 194 181 185 191 200 211 200 198 198 196 199 201 204 200 196 190 181 163 164 171 187 162 174 175 152 144
191 195 192 186 170 162 159 158 175 190 184 182 175 161 176 275 281 213 203 194 206 199 202 200 198 196 199 202 200 195 187 174 161 155 159 165 170 180 188 180 150 151
198 191 188 180 175 169 174 179 183 189 192 179 171 191 193 202 222 221 211 203 210 204 208 199 196 194 195 202 201 195 184 173 166 166 165 162 166 174 183 175 161 154
189 189 185 181 184 185 187 189 188 190 187 179 181 195 214 206 208 207 198 209 215 206 202 181 189 204 200 193 169 148 105 96 282 240 167 153 140 170 200 173 159 156
184 183 186 188 191 195 199 194 186 187 186 185 189 196 206 210 202 204 197 200 201 209 214 203 199 195 196 180 164 162 153 163 173 196 201 178 152 145 205 188 168 163
178 189 183 193 198 198 196 192 192 184 188 189 193 202 211 213 202 197 200 201 200 199 211 222 223 209 205 185 170 178 173 179 183 193 193 178 159 169 183 191 183 176
185 182 189 196 189 197 197 195 182 180 193 197 196 202 209 210 212 210 203 198 197 203 213 221 228 224 213 193 182 182 180 180 182 180 180 180 173 162 141 147 188 200
179 182 189 189 196 196 192 185 187 187 190 193 208 204 179 196 213 208 208 198 195 201 215 220 226 219 207 199 187 186 186 176 183 178 174 171 147 144 159 183 190 189
183 183 187 194 189 184 184 188 189 196 194 201 201 183 193 205 204 207 204 195 197 200 207 212 216 214 201 193 187 186 185 180 176 168 167 161 155 157 181 191 184 179
187 190 194 192 181 176 181 191 194 194 198 201 195 194 196 202 199 201 202 204 204 201 201 209 218 204 196 190 186 182 182 174 161 166 166 158 166 173 180 180 181 177
188 194 200 192 181 178 181 191 193 193 199 198 196 203 205 202 213 202 203 209 209 202 200 213 219 198 193 189 184 176 171 159 157 162 160 164 168 183 183 181 174 167
190 193 197 190 178 179 191 195 193 191 193 178 188 198 197 203 207 206 208 208 208 202 202 213 216 199 193 188 182 173 164 166 161 158 162 167 182 179 188 188 182 172
191 192 193 181 174 190 199 199 189 179 173 178 187 193 205 211 210 213 200 197 204 212 207 208 218 196 191 193 187 184 170 158 165 163 173 180 184 204 206 197 191 180
190 189 187 179 185 199 193 185 175 168 173 177 190 193 204 191 173 190 205 210 212 212 209 210 215 201 192 193 191 187 183 177 174 176 182 196 192 206 212 199 209 201
183 184 188 189 202 197 181 164 154 162 175 183 193 188 188 186 192 193 196 206 206 209 211 213 212 208 193 196 192 191 191 182 179 175 197 202 203 203 197 228 217 220